Location: Krakow
(50.0830°N, 19.9170°E)
Time: 06:35:19
(UTC+01:00)

Courier 1B Rocket - Pass Details

Date: 12 December 2023
Orbit: 920 x 1202 km, 28.2° (Epoch: 29 February)

Event Time Altitude Azimuth Distance (km) Brightness Sun altitude
Rises 10:05:52 0° 223° (SW) 3,920 8.5 14.3°
Reaches altitude 10° 10:11:48 10° 186° (S) 2,874 8.9 14.6°
Maximum altitude 10:12:56 10° 177° (S) 2,826 9.3 14.7°
Drops below altitude 10° 10:14:03 10° 167° (SSE) 2,839 10.2 14.7°
Sets 10:19:41 0° 129° (SE) 3,705 9.0 15.0°
